Regional Weather Roundup
Issued by NWS

Home | Current Version | Previous Version | Text Only | Print | Product List | Glossary Off
Versions: 1 2 3 4 5 6 7 8 9 10 11 12 13 14 15 16 17 18 19 20 21 22 23 24 25 26 27 28 29 30 31 32 33 34 35 36 37 38 39 40 41 42 43 44 45 46 47 48 49 50

000
ASUS43 KIND 272209
RWRIN

WEATHER ROUNDUP FOR INDIANA
NATIONAL WEATHER SERVICE INDIANAPOLIS IN
600 PM EDT THU APR 27 2017

NOTE: "FAIR" INDICATES FEW OR NO CLOUDS BELOW 12,000 FEET WITH NO
SIGNIFICANT WEATHER AND/OR OBSTRUCTIONS TO VISIBILITY.

* - STATION DOES NOT REPORT WEATHER SUCH AS PRECIPITATION OR FOG.

+ - STATION NOT QUALITY CONTROLLED BY THE NATIONAL WEATHER SERVICE.
    USE DATA WITH CAUTION...ESPECIALLY DEWPOINT AND RELATIVE
    HUMIDITY OBSERVATIONS.

INZ001>003-010>013-019-020-272300-
NORTHWEST INDIANA

CITY           SKY/WX    TMP DP  RH WIND       PRES   REMARKS
GARY /AIRPORT/ CLOUDY    50  39  66 SW16G29   29.72S
KNOX *+        CLOUDY    48  23  37 W16       29.74R
LA PORTE +     CLOUDY    47  40  75 SW15      29.74R
MICHIGAN CITY+ CLOUDY    46  37  71 SW12G22   29.73R
MONTICELLO +   CLOUDY    50  42  75 SW20      29.76R
RENSSELAER +   CLOUDY    46  41  81 SW16      29.76R
VALPARAISO     CLOUDY    49  40  71 SW17G26   29.74R

$$

LMZ046-743>745-272300-
SOUTHERN LAKE MICHIGAN

STATION/POSITION TIME  TEMP    WIND        PRES    WAVE
                       AIR SEA DIR/SP/G            HT
                 (UTC) (F)     (DEG/KT/KT) (MB)    (FT)
BURNS HARBOR     2140   48     230/ 19/ 23 1006.8R
MICHIGAN CITY    2140   47     220/ 21/ 24   N/A
5NW MICH CITY    2200   47 47                N/A     4

$$

INZ004-005-014>016-021>024-272300-
NORTH CENTRAL INDIANA

CITY           SKY/WX    TMP DP  RH WIND       PRES   REMARKS
ELKHART        CLOUDY    48  37  66 W17G23    29.73R
GOSHEN         CLOUDY    49  38  65 SW16G26   29.74R
LOGANSPORT +   CLOUDY    48  43  81 SW20      29.78R
PERU/GRISSOM   CLOUDY    50  47  87 W14G22    29.75R
ROCHESTER +    PTSUNNY   50  43  76 W9G18     29.76R
SOUTH BEND     CLOUDY    47  39  74 SW14G24   29.73R
WARSAW +       CLOUDY    48  39  71 W12G25    29.74R

$$

INZ006>009-017-018-025>027-272300-
NORTHEAST INDIANA

CITY           SKY/WX    TMP DP  RH WIND       PRES   REMARKS
ANGOLA *+      CLOUDY    50  43  76 W12       29.72R
AUBURN +       CLOUDY    52  41  66 SW7G17    29.75R
FORT WAYNE     CLOUDY    52  42  69 W17       29.75R
HUNTINGTON +   CLOUDY    51  43  74 SW13G18   29.76R
KENDALLVILLE + CLOUDY    50  41  71 SW22G32   29.74R

$$

INZ028-029-035-036-043>045-051>053-272300-
WEST CENTRAL INDIANA

CITY           SKY/WX    TMP DP  RH WIND       PRES   REMARKS
CRAWFORDSVL +  CLOUDY    49  45  84 SW13      29.78R
GREENCASTLE +  CLOUDY    52  43  71 W6        29.79R
LAFAYETTE      CLOUDY    50  44  80 SW10G17   29.77R
TERRE HAUTE    CLOUDY    55  45  68 SW15      29.79S

$$

INZ030>032-037>040-046>048-054>057-064-065-272300-
CENTRAL INDIANA

CITY           SKY/WX    TMP DP  RH WIND       PRES   REMARKS
CP ATTERBURY + CLOUDY    59  45  58 SW12      29.79R
COLUMBUS       CLOUDY    59  41  51 SW12G21   29.79R
FISHERS *+     CLOUDY    54  48  82 W12       29.78R
FRANKFORT +    CLOUDY    54  46  74 W20       29.79R
GREENWOOD *+   CLOUDY    57  44  60 W13G18    29.79R
INDIANAPOLIS   PTSUNNY   56  44  64 W14       29.78R
-EAGLE CREEK   CLOUDY    55  44  66 W8G21     29.77R
KOKOMO +       CLOUDY    51  45  79 SW17      29.78R
MARION +       CLOUDY    52  45  76 W14       29.78R HAZE
MT COMFORT *+  CLOUDY    55  45  67 SW15      29.78R
SHELBYVILLE    CLOUDY    60  44  55 SW15      29.78R
ZIONSVILLE +   CLOUDY    51  46  83 W12G20    29.78R

$$

INZ033-034-041-042-049-050-058-059-272300-
EAST CENTRAL INDIANA

CITY           SKY/WX    TMP DP  RH WIND       PRES   REMARKS
MUNCIE         PTSUNNY   57  43  59 W12       29.76R
RICHMOND +     PTSUNNY   57  45  62 W17       29.77R

$$

INZ060-061-067>069-081>083-085>088-272300-
SOUTHWEST INDIANA

CITY           SKY/WX    TMP DP  RH WIND       PRES   REMARKS
EVANSVILLE     PTSUNNY   60  48  64 SW10      29.83R
HUNTINGBURG *+ CLOUDY    59  49  69 SW10      29.83R
WASHINGTON +   CLOUDY    56  44  63 W13       29.82R

$$

INZ062-063-066-070>080-084-089>092-272300-
SOUTH CENTRAL AND SOUTHEAST INDIANA

CITY           SKY/WX    TMP DP  RH WIND       PRES   REMARKS
BEDFORD +      CLOUDY    59  45  58 SW14G20   29.80R
BLOOMINGTON    CLOUDY    57  44  62 W8G21     29.79R
MADISON *+     PTSUNNY   61  46  59 SW9       29.83R
SEYMOUR +      PTSUNNY   63  48  59 W16       29.80R

$$




USA.gov is the U.S. government's official web portal to all federal, state and local government web resources and services.